timestamp,surface_pressure_avg,surface_temp_avg,battery_voltage,lat,long
2019-10-24 00:00:00+00:00,226.0164,10.0,12.89,47.84626,-54.09684
2019-10-24 00:10:00+00:00,217.5031,10.0,12.81,47.84626,-54.09684
2019-10-24 00:20:00+00:00,208.0631,10.0,12.97,47.84626,-54.09684
2019-10-24 00:30:00+00:00,207.3081,9.98,12.97,47.84626,-54.09684
2019-10-24 00:40:00+00:00,210.4965,9.99,12.97,47.84626,-54.09684
2019-10-24 00:50:00+00:00,208.1614,9.99,12.97,47.84626,-54.09684
2019-10-24 01:00:00+00:00,202.3465,10.0,12.89,47.84626,-54.09684
2019-10-24 01:10:00+00:00,201.3431,9.99,12.81,47.84626,-54.09684
2019-10-24 01:20:00+00:00,203.1881,9.99,12.97,47.84626,-54.09684
2019-10-24 01:30:00+00:00,202.8448,9.99,12.97,47.84626,-54.09684
2019-10-24 01:40:00+00:00,203.0265,9.99,12.97,47.84626,-54.09684
2019-10-24 01:50:00+00:00,205.9298,9.99,12.97,47.84626,-54.09684
2019-10-24 02:00:00+00:00,203.7281,10.0,12.89,47.84626,-54.09684
2019-10-24 02:10:00+00:00,198.3781,9.99,12.81,47.84626,-54.09684
2019-10-24 02:20:00+00:00,196.1398,9.98,12.89,47.84626,-54.09684
2019-10-24 02:30:00+00:00,197.4931,9.96,12.89,47.84626,-54.09684
2019-10-24 02:40:00+00:00,194.4764,9.9,12.97,47.84626,-54.09684
2019-10-24 02:50:00+00:00,192.2298,9.92,12.97,47.84626,-54.09684
2019-10-24 03:00:00+00:00,196.6348,9.95,12.89,47.84626,-54.09684
2019-10-24 03:10:00+00:00,201.8798,9.99,12.81,47.84626,-54.09684
2019-10-24 03:20:00+00:00,205.6614,10.0,12.89,47.84626,-54.09684
2019-10-24 03:30:00+00:00,209.5914,10.0,12.89,47.84626,-54.09684
2019-10-24 03:40:00+00:00,211.5498,10.0,12.97,47.84626,-54.09684
2019-10-24 03:50:00+00:00,213.7148,10.0,12.97,47.84626,-54.09684
2019-10-24 04:00:00+00:00,217.6731,10.0,12.89,47.84626,-54.09684
2019-10-24 04:10:00+00:00,221.4398,10.0,12.81,47.84626,-54.09684
2019-10-24 04:20:00+00:00,222.9031,10.0,12.89,47.84626,-54.09684
2019-10-24 04:30:00+00:00,226.4631,10.0,12.89,47.84626,-54.09684
2019-10-24 04:40:00+00:00,238.7881,10.02,12.89,47.84626,-54.09684
2019-10-24 04:50:00+00:00,252.1431,10.06,12.89,47.84626,-54.09684
2019-10-24 05:00:00+00:00,261.3031,10.09,12.81,47.84626,-54.09684
2019-10-24 05:10:00+00:00,272.8131,10.09,12.81,47.84626,-54.09684
2019-10-24 05:20:00+00:00,287.548,10.09,12.89,47.84626,-54.09684
2019-10-24 05:30:00+00:00,296.7664,10.1,12.89,47.84626,-54.09684
2019-10-24 05:40:00+00:00,296.0546,10.09,12.89,47.84626,-54.09684
2019-10-24 05:50:00+00:00,295.8047,10.09,12.89,47.84626,-54.09684
2019-10-24 06:00:00+00:00,299.8263,10.1,12.81,47.84626,-54.09684
2019-10-24 06:10:00+00:00,297.3914,10.1,12.73,47.84626,-54.09684
2019-10-24 06:20:00+00:00,292.5681,10.1,12.81,47.84626,-54.09684
2019-10-24 06:30:00+00:00,292.3181,10.1,12.89,47.84626,-54.09684
2019-10-24 06:40:00+00:00,297.8164,10.1,12.89,47.84626,-54.09684
2019-10-24 06:50:00+00:00,298.5297,10.1,12.89,47.84626,-54.09684
2019-10-24 07:00:00+00:00,302.4214,10.13,12.81,47.84626,-54.09684
2019-10-24 07:10:00+00:00,317.0031,10.1,12.73,47.84626,-54.09684
2019-10-24 07:20:00+00:00,331.3279,10.13,12.81,47.84626,-54.09684
2019-10-24 07:30:00+00:00,329.9746,10.1,12.89,47.84626,-54.09684
2019-10-24 07:40:00+00:00,324.528,10.1,12.89,47.84626,-54.09684
2019-10-24 07:50:00+00:00,328.258,10.1,12.89,47.84626,-54.09684
2019-10-24 08:00:00+00:00,330.3563,10.1,12.81,47.84626,-54.09684
2019-10-24 08:10:00+00:00,316.833,10.1,12.73,47.84626,-54.09684
2019-10-24 08:20:00+00:00,306.6714,10.1,12.81,47.84626,-54.09684
2019-10-24 08:30:00+00:00,307.3964,10.1,12.81,47.84626,-54.09684
2019-10-24 08:40:00+00:00,307.8929,10.1,12.89,47.84626,-54.09684
2019-10-24 08:50:00+00:00,300.673,10.15,12.89,47.84626,-54.09684
2019-10-24 09:00:00+00:00,303.7963,10.14,12.81,47.84626,-54.09684
2019-10-24 09:10:00+00:00,314.2697,10.14,12.73,47.84626,-54.09684
2019-10-24 09:20:00+00:00,312.013,10.14,12.81,47.84626,-54.09684
2019-10-24 09:30:00+00:00,302.098,10.1,12.81,47.84626,-54.09684
2019-10-24 09:40:00+00:00,299.1597,10.1,12.89,47.84626,-54.09684
2019-10-24 09:50:00+00:00,297.7847,10.1,12.89,47.84626,-54.09684
2019-10-24 10:00:00+00:00,288.2347,10.1,12.81,47.84626,-54.09684
2019-10-24 10:10:00+00:00,278.8497,10.05,12.73,47.84626,-54.09684
2019-10-24 10:20:00+00:00,270.2281,10.04,12.81,47.84626,-54.09684
2019-10-24 10:30:00+00:00,258.1681,10.03,12.89,47.84626,-54.09684
2019-10-24 10:40:00+00:00,246.0814,10.0,12.89,47.84626,-54.09684
2019-10-24 10:50:00+00:00,244.9315,10.0,12.89,47.84626,-54.09684
2019-10-24 11:00:00+00:00,247.4098,10.0,12.81,47.84626,-54.09684
2019-10-24 11:10:00+00:00,249.1797,10.01,12.73,47.84626,-54.09684
2019-10-24 11:20:00+00:00,249.3631,10.05,12.81,47.84626,-54.09684
2019-10-24 11:30:00+00:00,248.2614,10.07,12.89,47.84626,-54.09684
2019-10-24 11:40:00+00:00,251.4581,10.06,12.89,47.84626,-54.09684
2019-10-24 11:50:00+00:00,255.0414,10.05,12.89,47.84626,-54.09684
2019-10-24 12:00:00+00:00,251.4898,10.05,12.81,47.84626,-54.09684
2019-10-24 12:10:00+00:00,236.4031,10.0,12.81,47.84626,-54.09684
2019-10-24 12:20:00+00:00,222.8698,10.0,12.89,47.84626,-54.09684
2019-10-24 12:30:00+00:00,214.5998,10.0,12.97,47.84626,-54.09684
2019-10-24 12:40:00+00:00,208.2565,10.0,12.97,47.84626,-54.09684
2019-10-24 12:50:00+00:00,205.5297,10.0,12.97,47.84626,-54.09684
2019-10-24 13:00:00+00:00,202.5031,10.0,12.89,47.84626,-54.09684
2019-10-24 13:10:00+00:00,204.0181,10.0,12.81,47.84626,-54.09684
2019-10-24 13:20:00+00:00,207.4881,9.99,12.89,47.84626,-54.09684
2019-10-24 13:30:00+00:00,204.5981,10.0,12.97,47.84626,-54.09684
2019-10-24 13:40:00+00:00,197.5465,10.0,12.97,47.84626,-54.09684
2019-10-24 13:50:00+00:00,202.7798,10.0,13.05,47.84626,-54.09684
2019-10-24 14:00:00+00:00,202.9681,10.0,12.97,47.84626,-54.09684
2019-10-24 14:10:00+00:00,199.2348,10.0,12.97,47.84626,-54.09684
2019-10-24 14:20:00+00:00,199.6148,10.0,13.05,47.84626,-54.09684
2019-10-24 14:30:00+00:00,194.9031,10.0,13.05,47.84626,-54.09684
2019-10-24 14:40:00+00:00,192.0032,10.0,13.05,47.84626,-54.09684
2019-10-24 14:50:00+00:00,195.8632,10.0,13.13,47.84626,-54.09684
2019-10-24 15:00:00+00:00,202.6265,10.0,13.05,47.84626,-54.09684
2019-10-24 15:10:00+00:00,201.3548,10.0,12.97,47.84626,-54.09684
2019-10-24 15:20:00+00:00,201.6797,10.0,13.05,47.84626,-54.09684
2019-10-24 15:30:00+00:00,211.8065,10.0,13.05,47.84626,-54.09684
2019-10-24 15:40:00+00:00,215.5581,10.0,13.13,47.84626,-54.09684
2019-10-24 15:50:00+00:00,215.9464,10.0,13.21,47.84626,-54.09684
2019-10-24 16:00:00+00:00,216.8498,10.0,13.13,47.84626,-54.09684
2019-10-24 16:10:00+00:00,221.6081,10.0,13.05,47.84626,-54.09684
2019-10-24 16:20:00+00:00,224.8931,10.0,13.13,47.84626,-54.09684
2019-10-24 16:30:00+00:00,222.4781,10.0,13.13,47.84626,-54.09684
2019-10-24 16:40:00+00:00,219.9848,10.0,13.21,47.84626,-54.09684
2019-10-24 16:50:00+00:00,232.4298,10.0,13.21,47.84626,-54.09684
2019-10-24 17:00:00+00:00,242.3948,10.0,13.13,47.84626,-54.09684
2019-10-24 17:10:00+00:00,247.2798,10.0,13.05,47.84626,-54.09684
2019-10-24 17:20:00+00:00,252.6764,10.0,13.05,47.84626,-54.09684
2019-10-24 17:30:00+00:00,266.4281,10.0,13.05,47.84626,-54.09684
2019-10-24 17:40:00+00:00,275.8447,10.0,13.13,47.84626,-54.09684
2019-10-24 17:50:00+00:00,283.7313,10.02,13.13,47.84626,-54.09684
2019-10-24 18:00:00+00:00,292.843,10.04,13.05,47.84626,-54.09684
2019-10-24 18:10:00+00:00,302.6531,10.04,12.97,47.84626,-54.09684
2019-10-24 18:20:00+00:00,305.498,10.04,12.97,47.84626,-54.09684
2019-10-24 18:30:00+00:00,304.4347,10.01,13.05,47.84626,-54.09684
2019-10-24 18:40:00+00:00,304.4547,10.0,13.05,47.84626,-54.09684
2019-10-24 18:50:00+00:00,313.9313,10.01,13.05,47.84626,-54.09684
2019-10-24 19:00:00+00:00,317.7496,10.0,12.97,47.84626,-54.09684
2019-10-24 19:10:00+00:00,318.5313,10.0,12.81,47.84626,-54.09684
2019-10-24 19:20:00+00:00,321.348,10.0,12.89,47.84626,-54.09684
2019-10-24 19:30:00+00:00,328.5096,10.0,12.89,47.84626,-54.09684
2019-10-24 19:40:00+00:00,335.5963,10.0,12.89,47.84626,-54.09684
2019-10-24 19:50:00+00:00,335.8862,10.0,12.89,47.84626,-54.09684
2019-10-24 20:00:00+00:00,337.198,10.0,12.81,47.84626,-54.09684
2019-10-24 20:10:00+00:00,345.4346,10.0,12.81,47.84626,-54.09684
2019-10-24 20:20:00+00:00,349.1012,10.0,12.89,47.84626,-54.09684
2019-10-24 20:30:00+00:00,347.6796,10.0,12.89,47.84626,-54.09684
2019-10-24 20:40:00+00:00,347.6763,10.0,12.89,47.84626,-54.09684
2019-10-24 20:50:00+00:00,348.153,10.0,12.89,47.84626,-54.09684
2019-10-24 21:00:00+00:00,340.4496,10.0,12.81,47.84626,-54.09684
2019-10-24 21:10:00+00:00,334.728,10.0,12.81,47.84626,-54.09684
2019-10-24 21:20:00+00:00,341.918,10.0,12.89,47.84626,-54.09684
2019-10-24 21:30:00+00:00,340.8763,10.0,12.89,47.84626,-54.09684
2019-10-24 21:40:00+00:00,330.718,10.0,12.89,47.84626,-54.09684
2019-10-24 21:50:00+00:00,324.5262,10.0,12.89,47.84626,-54.09684
2019-10-24 22:00:00+00:00,328.2163,10.0,12.81,47.84626,-54.09684
2019-10-24 22:10:00+00:00,327.3229,10.0,12.81,47.84626,-54.09684
2019-10-24 22:20:00+00:00,317.0413,10.0,12.89,47.84626,-54.09684
2019-10-24 22:30:00+00:00,311.198,10.0,12.89,47.84626,-54.09684
2019-10-24 22:40:00+00:00,309.4231,10.0,12.89,47.84626,-54.09684
2019-10-24 22:50:00+00:00,298.0696,10.0,12.89,47.84626,-54.09684
2019-10-24 23:00:00+00:00,284.888,10.0,12.81,47.84626,-54.09684
2019-10-24 23:10:00+00:00,275.8264,10.0,12.73,47.84626,-54.09684
2019-10-24 23:20:00+00:00,269.8031,10.0,12.89,47.84626,-54.09684
2019-10-24 23:30:00+00:00,261.2814,10.0,12.89,47.84626,-54.09684
2019-10-24 23:40:00+00:00,252.9481,10.0,12.89,47.84626,-54.09684
2019-10-24 23:50:00+00:00,249.7097,10.0,12.89,47.84626,-54.09684
